Time,TemperatureF,DewpointF,PressureIn,WindDirection,WindDirectionDegrees,WindSpeedMPH,WindSpeedGustMPH,Humidity,HourlyPrecipIn,Conditions,Clouds,dailyrainin,SoftwareType,DateUTC
2013-02-03 00:01:00,55.1,50.4,30.24,NNE,25,0.0,0.0,84,0.00,,,0.00,WUHU216DAVISVP2,2013-02-03 06:01:00,
2013-02-03 00:06:00,54.9,49.8,30.24,NNE,25,0.0,0.0,83,0.00,,,0.00,WUHU216DAVISVP2,2013-02-03 06:06:00,
2013-02-03 00:11:00,54.8,50.1,30.24,NNE,25,0.0,0.0,84,0.00,,,0.00,WUHU216DAVISVP2,2013-02-03 06:11:00,
2013-02-03 00:16:00,54.7,50.3,30.24,NNE,25,0.0,0.0,85,0.00,,,0.00,WUHU216DAVISVP2,2013-02-03 06:16:00,
2013-02-03 00:21:00,54.7,50.6,30.24,NNE,25,0.0,0.0,86,0.00,,,0.00,WUHU216DAVISVP2,2013-02-03 06:21:00,
2013-02-03 00:26:00,54.8,51.0,30.24,NNE,25,0.0,1.0,87,0.00,,,0.00,WUHU216DAVISVP2,2013-02-03 06:26:00,
2013-02-03 00:31:00,54.9,51.1,30.24,NNE,25,0.0,1.0,87,0.00,,,0.00,WUHU216DAVISVP2,2013-02-03 06:31:00,
2013-02-03 00:36:00,54.8,50.7,30.24,NNE,25,0.0,1.0,86,0.00,,,0.00,WUHU216DAVISVP2,2013-02-03 06:36:00,
2013-02-03 00:41:00,54.7,50.6,30.24,NNE,25,0.0,1.0,86,0.00,,,0.00,WUHU216DAVISVP2,2013-02-03 06:41:00,
2013-02-03 00:46:00,54.7,50.9,30.24,NNE,25,0.0,1.0,87,0.00,,,0.00,WUHU216DAVISVP2,2013-02-03 06:46:00,
2013-02-03 00:51:00,55.0,51.2,30.23,NNE,25,0.0,1.0,87,0.00,,,0.00,WUHU216DAVISVP2,2013-02-03 06:51:00,
2013-02-03 00:56:00,55.4,51.6,30.23,NNE,25,0.0,1.0,87,0.00,,,0.00,WUHU216DAVISVP2,2013-02-03 06:56:00,
2013-02-03 01:01:00,55.4,51.6,30.24,NNE,25,0.0,1.0,87,0.00,,,0.00,WUHU216DAVISVP2,2013-02-03 07:01:00,
2013-02-03 01:06:00,55.4,51.6,30.24,NNE,25,0.0,1.0,87,0.00,,,0.00,WUHU216DAVISVP2,2013-02-03 07:06:00,
2013-02-03 01:11:00,55.4,51.6,30.24,NNE,25,0.0,1.0,87,0.00,,,0.00,WUHU216DAVISVP2,2013-02-03 07:11:00,
2013-02-03 01:16:00,55.3,51.5,30.23,NNE,25,0.0,1.0,87,0.00,,,0.00,WUHU216DAVISVP2,2013-02-03 07:16:00,
2013-02-03 01:21:00,55.5,51.7,30.23,NNE,25,1.0,1.0,87,0.00,,,0.00,WUHU216DAVISVP2,2013-02-03 07:21:00,
2013-02-03 01:26:00,55.6,51.8,30.24,NNE,25,0.0,1.0,87,0.00,,,0.00,WUHU216DAVISVP2,2013-02-03 07:26:00,
2013-02-03 01:31:00,55.7,51.9,30.24,NNE,25,0.0,1.0,87,0.00,,,0.00,WUHU216DAVISVP2,2013-02-03 07:31:00,
2013-02-03 01:36:00,55.7,51.9,30.24,NNE,25,0.0,1.0,87,0.00,,,0.00,WUHU216DAVISVP2,2013-02-03 07:36:00,
2013-02-03 01:41:00,55.7,51.6,30.24,NNE,25,0.0,1.0,86,0.00,,,0.00,WUHU216DAVISVP2,2013-02-03 07:41:00,
2013-02-03 01:46:00,55.6,51.8,30.23,NNE,25,1.0,1.0,87,0.00,,,0.00,WUHU216DAVISVP2,2013-02-03 07:46:00,
2013-02-03 01:51:00,55.7,51.9,30.23,NNE,25,1.0,2.0,87,0.00,,,0.00,WUHU216DAVISVP2,2013-02-03 07:51:00,
2013-02-03 01:56:00,55.7,51.9,30.23,NNE,25,0.0,2.0,87,0.00,,,0.00,WUHU216DAVISVP2,2013-02-03 07:56:00,
2013-02-03 02:01:00,55.8,52.0,30.23,NNE,25,1.0,2.0,87,0.00,,,0.00,WUHU216DAVISVP2,2013-02-03 08:01:00,
2013-02-03 02:06:00,56.0,52.2,30.23,NNE,25,2.0,3.0,87,0.00,,,0.00,WUHU216DAVISVP2,2013-02-03 08:06:00,
2013-02-03 02:11:00,56.0,51.9,30.23,NNE,25,2.0,3.0,86,0.00,,,0.00,WUHU216DAVISVP2,2013-02-03 08:11:00,
2013-02-03 02:16:00,56.0,51.9,30.23,NNE,26,0.0,3.0,86,0.00,,,0.00,WUHU216DAVISVP2,2013-02-03 08:16:00,
2013-02-03 02:21:00,56.0,51.6,30.23,NNE,26,2.0,3.0,85,0.00,,,0.00,WUHU216DAVISVP2,2013-02-03 08:21:00,
2013-02-03 02:26:00,56.0,51.2,30.23,North,350,1.0,3.0,84,0.00,,,0.00,WUHU216DAVISVP2,2013-02-03 08:26:00,
2013-02-03 02:31:00,56.2,51.1,30.23,North,11,3.0,6.0,83,0.00,,,0.00,WUHU216DAVISVP2,2013-02-03 08:31:00,
2013-02-03 02:36:00,56.6,50.8,30.23,North,11,4.0,6.0,81,0.00,,,0.00,WUHU216DAVISVP2,2013-02-03 08:36:00,
2013-02-03 02:41:00,56.6,50.5,30.23,NNE,16,4.0,6.0,80,0.00,,,0.00,WUHU216DAVISVP2,2013-02-03 08:41:00,
2013-02-03 02:46:00,56.7,50.3,30.23,North,350,3.0,7.0,79,0.00,,,0.00,WUHU216DAVISVP2,2013-02-03 08:46:00,
2013-02-03 02:52:00,56.6,49.8,30.23,NNE,13,3.0,7.0,78,0.00,,,0.00,WUHU216DAVISVP2,2013-02-03 08:52:00,
2013-02-03 02:57:00,56.6,49.8,30.23,North,355,2.0,7.0,78,0.00,,,0.00,WUHU216DAVISVP2,2013-02-03 08:57:00,
2013-02-03 03:02:00,56.6,49.5,30.24,NNE,24,3.0,6.0,77,0.00,,,0.00,WUHU216DAVISVP2,2013-02-03 09:02:00,
2013-02-03 03:07:00,56.5,49.5,30.24,NNE,14,2.0,6.0,77,0.00,,,0.00,WUHU216DAVISVP2,2013-02-03 09:07:00,
2013-02-03 03:12:00,56.4,49.4,30.24,North,5,2.0,6.0,77,0.00,,,0.00,WUHU216DAVISVP2,2013-02-03 09:12:00,
2013-02-03 03:17:00,56.3,49.3,30.24,North,5,3.0,6.0,77,0.00,,,0.00,WUHU216DAVISVP2,2013-02-03 09:17:00,
2013-02-03 03:22:00,56.2,48.8,30.24,NNE,21,3.0,5.0,76,0.00,,,0.00,WUHU216DAVISVP2,2013-02-03 09:22:00,
2013-02-03 03:27:00,56.2,48.8,30.24,North,355,2.0,5.0,76,0.00,,,0.00,WUHU216DAVISVP2,2013-02-03 09:27:00,
2013-02-03 03:32:00,56.1,48.7,30.24,North,5,3.0,5.0,76,0.00,,,0.00,WUHU216DAVISVP2,2013-02-03 09:32:00,
2013-02-03 03:37:00,56.1,48.7,30.24,North,5,2.0,4.0,76,0.00,,,0.00,WUHU216DAVISVP2,2013-02-03 09:37:00,
2013-02-03 03:42:00,55.9,48.5,30.24,North,5,2.0,4.0,76,0.00,,,0.00,WUHU216DAVISVP2,2013-02-03 09:42:00,
2013-02-03 03:47:00,55.7,48.3,30.24,North,5,2.0,4.0,76,0.00,,,0.00,WUHU216DAVISVP2,2013-02-03 09:47:00,
2013-02-03 03:52:00,55.8,48.1,30.24,North,5,1.0,4.0,75,0.00,,,0.00,WUHU216DAVISVP2,2013-02-03 09:52:00,
2013-02-03 03:57:00,55.7,48.0,30.24,North,5,2.0,4.0,75,0.00,,,0.00,WUHU216DAVISVP2,2013-02-03 09:57:00,
2013-02-03 04:02:00,55.6,47.9,30.24,North,5,1.0,4.0,75,0.00,,,0.00,WUHU216DAVISVP2,2013-02-03 10:02:00,
2013-02-03 04:07:00,55.5,47.8,30.24,North,5,2.0,4.0,75,0.00,,,0.00,WUHU216DAVISVP2,2013-02-03 10:07:00,
2013-02-03 04:13:00,55.3,47.6,30.24,North,5,1.0,3.0,75,0.00,,,0.00,WUHU216DAVISVP2,2013-02-03 10:13:00,
2013-02-03 04:18:00,55.3,47.6,30.24,North,5,2.0,3.0,75,0.00,,,0.00,WUHU216DAVISVP2,2013-02-03 10:18:00,
2013-02-03 04:23:00,55.0,47.3,30.24,North,5,0.0,3.0,75,0.00,,,0.00,WUHU216DAVISVP2,2013-02-03 10:23:00,
2013-02-03 04:28:00,55.0,47.3,30.24,North,5,2.0,3.0,75,0.00,,,0.00,WUHU216DAVISVP2,2013-02-03 10:28:00,
2013-02-03 04:33:00,54.9,47.2,30.24,North,5,1.0,4.0,75,0.00,,,0.00,WUHU216DAVISVP2,2013-02-03 10:33:00,
2013-02-03 04:38:00,54.8,47.1,30.24,North,5,1.0,4.0,75,0.00,,,0.00,WUHU216DAVISVP2,2013-02-03 10:38:00,
2013-02-03 04:43:00,54.8,47.1,30.25,North,5,2.0,4.0,75,0.00,,,0.00,WUHU216DAVISVP2,2013-02-03 10:43:00,
2013-02-03 04:48:00,54.8,47.1,30.24,North,10,2.0,3.0,75,0.00,,,0.00,WUHU216DAVISVP2,2013-02-03 10:48:00,
2013-02-03 04:54:00,54.8,47.1,30.25,North,10,2.0,3.0,75,0.00,,,0.00,WUHU216DAVISVP2,2013-02-03 10:54:00,
2013-02-03 04:59:00,54.8,47.1,30.25,North,10,2.0,3.0,75,0.00,,,0.00,WUHU216DAVISVP2,2013-02-03 10:59:00,
2013-02-03 05:04:00,54.8,47.1,30.25,North,10,1.0,3.0,75,0.00,,,0.00,WUHU216DAVISVP2,2013-02-03 11:04:00,
2013-02-03 05:09:00,54.6,46.9,30.25,North,10,1.0,3.0,75,0.00,,,0.00,WUHU216DAVISVP2,2013-02-03 11:09:00,
2013-02-03 05:14:00,54.5,47.2,30.25,North,10,2.0,3.0,76,0.00,,,0.00,WUHU216DAVISVP2,2013-02-03 11:14:00,
2013-02-03 05:19:00,54.3,47.0,30.25,North,10,1.0,3.0,76,0.00,,,0.00,WUHU216DAVISVP2,2013-02-03 11:19:00,
2013-02-03 05:24:00,54.2,46.9,30.25,North,10,1.0,3.0,76,0.00,,,0.00,WUHU216DAVISVP2,2013-02-03 11:24:00,
2013-02-03 05:29:00,54.1,47.1,30.25,North,10,2.0,3.0,77,0.00,,,0.00,WUHU216DAVISVP2,2013-02-03 11:29:00,
2013-02-03 05:34:00,54.1,47.1,30.25,NNE,24,1.0,5.0,77,0.00,,,0.00,WUHU216DAVISVP2,2013-02-03 11:34:00,
2013-02-03 05:39:00,54.1,47.1,30.25,NNE,24,1.0,5.0,77,0.00,,,0.00,WUHU216DAVISVP2,2013-02-03 11:39:00,
2013-02-03 05:44:00,53.9,46.9,30.25,NNE,24,1.0,5.0,77,0.00,,,0.00,WUHU216DAVISVP2,2013-02-03 11:44:00,
2013-02-03 05:49:00,53.7,46.7,30.26,NNE,24,1.0,5.0,77,0.00,,,0.00,WUHU216DAVISVP2,2013-02-03 11:49:00,
2013-02-03 05:54:00,53.5,46.9,30.26,NNE,24,1.0,3.0,78,0.00,,,0.00,WUHU216DAVISVP2,2013-02-03 11:54:00,
2013-02-03 05:59:00,53.2,46.6,30.26,NNE,24,0.0,3.0,78,0.00,,,0.00,WUHU216DAVISVP2,2013-02-03 11:59:00,
2013-02-03 06:04:00,53.1,46.5,30.26,NNE,24,1.0,2.0,78,0.00,,,0.00,WUHU216DAVISVP2,2013-02-03 12:04:00,
2013-02-03 06:09:00,53.0,46.4,30.26,NNE,24,0.0,2.0,78,0.00,,,0.00,WUHU216DAVISVP2,2013-02-03 12:09:00,
2013-02-03 06:14:00,52.9,46.3,30.26,NNE,24,0.0,2.0,78,0.00,,,0.00,WUHU216DAVISVP2,2013-02-03 12:14:00,
2013-02-03 06:19:00,52.6,46.3,30.26,NNE,24,0.0,2.0,79,0.00,,,0.00,WUHU216DAVISVP2,2013-02-03 12:19:00,
2013-02-03 06:24:00,52.3,46.0,30.26,NNE,24,1.0,3.0,79,0.00,,,0.00,WUHU216DAVISVP2,2013-02-03 12:24:00,
2013-02-03 06:29:00,52.2,45.9,30.26,NNE,24,2.0,3.0,79,0.00,,,0.00,WUHU216DAVISVP2,2013-02-03 12:29:00,
2013-02-03 06:34:00,52.1,45.8,30.26,NNE,24,2.0,3.0,79,0.00,,,0.00,WUHU216DAVISVP2,2013-02-03 12:34:00,
2013-02-03 06:39:00,52.1,45.8,30.26,NNE,24,2.0,3.0,79,0.00,,,0.00,WUHU216DAVISVP2,2013-02-03 12:39:00,
2013-02-03 06:44:00,51.9,45.6,30.26,NNE,24,2.0,3.0,79,0.00,,,0.00,WUHU216DAVISVP2,2013-02-03 12:44:00,
2013-02-03 06:49:00,51.8,45.5,30.26,NNE,24,2.0,3.0,79,0.00,,,0.00,WUHU216DAVISVP2,2013-02-03 12:49:00,
2013-02-03 06:54:00,51.7,45.4,30.27,NNE,24,2.0,3.0,79,0.00,,,0.00,WUHU216DAVISVP2,2013-02-03 12:54:00,
2013-02-03 06:59:00,51.7,45.4,30.27,NNE,24,2.0,3.0,79,0.00,,,0.00,WUHU216DAVISVP2,2013-02-03 12:59:00,
2013-02-03 07:04:00,51.5,45.2,30.27,NNE,24,0.0,3.0,79,0.00,,,0.00,WUHU216DAVISVP2,2013-02-03 13:04:00,
2013-02-03 07:09:00,51.4,45.2,30.27,NNE,24,0.0,3.0,79,0.00,,,0.00,WUHU216DAVISVP2,2013-02-03 13:09:00,
2013-02-03 07:14:00,51.2,45.0,30.27,NNE,24,1.0,2.0,79,0.00,,,0.00,WUHU216DAVISVP2,2013-02-03 13:14:00,
2013-02-03 07:19:00,51.2,45.3,30.27,NNE,24,1.0,2.0,80,0.00,,,0.00,WUHU216DAVISVP2,2013-02-03 13:19:00,
2013-02-03 07:24:00,51.2,45.0,30.27,NNE,24,0.0,2.0,79,0.00,,,0.00,WUHU216DAVISVP2,2013-02-03 13:24:00,
2013-02-03 07:29:00,51.2,45.0,30.27,NNE,24,0.0,2.0,79,0.00,,,0.00,WUHU216DAVISVP2,2013-02-03 13:29:00,
2013-02-03 07:34:00,51.0,44.8,30.27,NNE,24,0.0,2.0,79,0.00,,,0.00,WUHU216DAVISVP2,2013-02-03 13:34:00,
2013-02-03 07:39:00,51.0,45.1,30.28,NNE,24,0.0,1.0,80,0.00,,,0.00,WUHU216DAVISVP2,2013-02-03 13:39:00,
2013-02-03 07:44:00,51.0,45.1,30.28,NNE,24,1.0,2.0,80,0.00,,,0.00,WUHU216DAVISVP2,2013-02-03 13:44:00,
2013-02-03 07:49:00,51.2,45.3,30.28,NNE,24,1.0,2.0,80,0.00,,,0.00,WUHU216DAVISVP2,2013-02-03 13:49:00,
2013-02-03 07:54:00,51.3,45.4,30.28,NNE,24,2.0,2.0,80,0.00,,,0.00,WUHU216DAVISVP2,2013-02-03 13:54:00,
2013-02-03 07:59:00,51.4,45.5,30.28,NNE,24,1.0,2.0,80,0.00,,,0.00,WUHU216DAVISVP2,2013-02-03 13:59:00,
2013-02-03 08:04:00,51.4,45.2,30.28,NNE,24,0.0,2.0,79,0.00,,,0.00,WUHU216DAVISVP2,2013-02-03 14:04:00,
2013-02-03 08:09:00,51.5,45.6,30.29,NNE,24,1.0,2.0,80,0.00,,,0.00,WUHU216DAVISVP2,2013-02-03 14:09:00,
2013-02-03 08:14:00,51.7,45.8,30.29,NNE,24,1.0,2.0,80,0.00,,,0.00,WUHU216DAVISVP2,2013-02-03 14:14:00,
2013-02-03 08:19:00,52.0,45.7,30.29,NNE,24,1.0,2.0,79,0.00,,,0.00,WUHU216DAVISVP2,2013-02-03 14:19:00,
2013-02-03 08:24:00,52.3,45.7,30.29,NNE,24,3.0,3.0,78,0.00,,,0.00,WUHU216DAVISVP2,2013-02-03 14:24:00,
2013-02-03 08:29:00,52.7,46.1,30.29,NNE,24,1.0,3.0,78,0.00,,,0.00,WUHU216DAVISVP2,2013-02-03 14:29:00,
2013-02-03 08:34:00,53.1,46.1,30.29,NNE,24,2.0,3.0,77,0.00,,,0.00,WUHU216DAVISVP2,2013-02-03 14:34:00,
2013-02-03 08:39:00,53.6,46.3,30.29,NNW,341,3.0,4.0,76,0.00,,,0.00,WUHU216DAVISVP2,2013-02-03 14:39:00,
2013-02-03 08:44:00,54.2,45.8,30.30,North,355,2.0,5.0,73,0.00,,,0.00,WUHU216DAVISVP2,2013-02-03 14:44:00,
2013-02-03 08:50:00,54.7,46.0,30.30,NNW,346,3.0,5.0,72,0.00,,,0.00,WUHU216DAVISVP2,2013-02-03 14:50:00,
2013-02-03 08:55:00,55.2,46.1,30.30,North,355,4.0,5.0,71,0.00,,,0.00,WUHU216DAVISVP2,2013-02-03 14:55:00,
2013-02-03 09:01:00,55.7,46.2,30.30,North,360,2.0,6.0,70,0.00,,,0.00,WUHU216DAVISVP2,2013-02-03 15:01:00,
2013-02-03 09:06:00,56.3,45.6,30.30,NNW,348,3.0,6.0,67,0.00,,,0.00,WUHU216DAVISVP2,2013-02-03 15:06:00,
2013-02-03 09:11:00,56.9,45.4,30.31,North,5,3.0,6.0,65,0.00,,,0.00,WUHU216DAVISVP2,2013-02-03 15:11:00,
2013-02-03 09:16:00,57.5,45.1,30.31,North,355,5.0,6.0,63,0.00,,,0.00,WUHU216DAVISVP2,2013-02-03 15:16:00,
2013-02-03 09:21:00,58.1,45.3,30.31,NNW,339,5.0,6.0,62,0.00,,,0.00,WUHU216DAVISVP2,2013-02-03 15:21:00,
2013-02-03 09:26:00,58.6,44.4,30.31,NNW,346,5.0,7.0,59,0.00,,,0.00,WUHU216DAVISVP2,2013-02-03 15:26:00,
2013-02-03 09:31:00,59.0,44.3,30.31,NNW,343,2.0,7.0,58,0.00,,,0.00,WUHU216DAVISVP2,2013-02-03 15:31:00,
2013-02-03 09:36:00,59.4,43.8,30.31,NNW,337,5.0,8.0,56,0.00,,,0.00,WUHU216DAVISVP2,2013-02-03 15:36:00,
2013-02-03 09:41:00,59.8,43.7,30.31,NNW,344,4.0,8.0,55,0.00,,,0.00,WUHU216DAVISVP2,2013-02-03 15:41:00,
2013-02-03 09:46:00,60.1,44.0,30.31,NNW,341,5.0,9.0,55,0.00,,,0.00,WUHU216DAVISVP2,2013-02-03 15:46:00,
2013-02-03 09:51:00,60.4,42.7,30.31,North,351,6.0,9.0,52,0.00,,,0.00,WUHU216DAVISVP2,2013-02-03 15:51:00,
2013-02-03 09:56:00,60.5,42.3,30.31,NNW,334,5.0,9.0,51,0.00,,,0.00,WUHU216DAVISVP2,2013-02-03 15:56:00,
2013-02-03 10:01:00,60.8,42.1,30.31,North,355,5.0,9.0,50,0.00,,,0.00,WUHU216DAVISVP2,2013-02-03 16:01:00,
2013-02-03 10:06:00,61.1,42.9,30.31,North,349,3.0,8.0,51,0.00,,,0.00,WUHU216DAVISVP2,2013-02-03 16:06:00,
2013-02-03 10:11:00,61.7,42.9,30.31,North,355,4.0,8.0,50,0.00,,,0.00,WUHU216DAVISVP2,2013-02-03 16:11:00,
2013-02-03 10:16:00,62.0,42.6,30.31,NNW,343,3.0,8.0,49,0.00,,,0.00,WUHU216DAVISVP2,2013-02-03 16:16:00,
2013-02-03 10:20:00,62.3,42.3,30.31,NNW,342,4.0,7.0,48,0.00,,,0.00,WUHU216DAVISVP2,2013-02-03 16:20:00,
2013-02-03 10:25:00,63.1,42.5,30.31,NNW,343,5.0,7.0,47,0.00,,,0.00,WUHU216DAVISVP2,2013-02-03 16:25:00,
2013-02-03 10:30:00,63.5,41.7,30.31,NNW,342,4.0,7.0,45,0.00,,,0.00,WUHU216DAVISVP2,2013-02-03 16:30:00,
2013-02-03 10:35:00,63.8,40.8,30.31,North,355,3.0,7.0,43,0.00,,,0.00,WUHU216DAVISVP2,2013-02-03 16:35:00,
2013-02-03 10:40:00,64.0,40.3,30.31,North,360,2.0,8.0,42,0.00,,,0.00,WUHU216DAVISVP2,2013-02-03 16:40:00,
2013-02-03 10:45:00,64.3,41.2,30.30,NNW,338,4.0,8.0,43,0.00,,,0.00,WUHU216DAVISVP2,2013-02-03 16:45:00,
2013-02-03 10:50:00,64.6,40.2,30.30,NNW,344,3.0,8.0,41,0.00,,,0.00,WUHU216DAVISVP2,2013-02-03 16:50:00,
2013-02-03 10:55:00,64.9,39.2,30.30,NW,326,6.0,10.0,39,0.00,,,0.00,WUHU216DAVISVP2,2013-02-03 16:55:00,
2013-02-03 11:00:00,65.2,38.8,30.30,NNW,328,5.0,10.0,38,0.00,,,0.00,WUHU216DAVISVP2,2013-02-03 17:00:00,
2013-02-03 11:05:00,65.4,40.3,30.30,NNW,348,4.0,10.0,40,0.00,,,0.00,WUHU216DAVISVP2,2013-02-03 17:05:00,
2013-02-03 11:10:00,65.9,40.1,30.30,NNW,348,2.0,10.0,39,0.00,,,0.00,WUHU216DAVISVP2,2013-02-03 17:10:00,
2013-02-03 11:16:00,66.4,38.4,30.29,NNW,347,6.0,8.0,36,0.00,,,0.00,WUHU216DAVISVP2,2013-02-03 17:16:00,
2013-02-03 11:21:00,66.6,37.9,30.29,NNW,342,5.0,8.0,35,0.00,,,0.00,WUHU216DAVISVP2,2013-02-03 17:21:00,
2013-02-03 11:26:00,66.7,38.0,30.29,North,360,6.0,8.0,35,0.00,,,0.00,WUHU216DAVISVP2,2013-02-03 17:26:00,
2013-02-03 11:31:00,66.7,38.0,30.29,North,355,4.0,8.0,35,0.00,,,0.00,WUHU216DAVISVP2,2013-02-03 17:31:00,
2013-02-03 11:36:00,67.0,38.2,30.29,North,10,1.0,8.0,35,0.00,,,0.00,WUHU216DAVISVP2,2013-02-03 17:36:00,
2013-02-03 11:41:00,67.5,37.9,30.28,NNW,342,7.0,8.0,34,0.00,,,0.00,WUHU216DAVISVP2,2013-02-03 17:41:00,
2013-02-03 11:45:00,67.3,37.0,30.28,NNW,347,6.0,7.0,33,0.00,,,0.00,WUHU216DAVISVP2,2013-02-03 17:45:00,
2013-02-03 11:50:00,67.5,37.2,30.28,North,350,6.0,8.0,33,0.00,,,0.00,WUHU216DAVISVP2,2013-02-03 17:50:00,
2013-02-03 11:55:00,67.6,37.3,30.28,NNW,340,3.0,8.0,33,0.00,,,0.00,WUHU216DAVISVP2,2013-02-03 17:55:00,
2013-02-03 12:00:00,67.8,37.4,30.27,NNE,24,5.0,8.0,33,0.00,,,0.00,WUHU216DAVISVP2,2013-02-03 18:00:00,
2013-02-03 12:05:00,68.0,38.4,30.27,North,351,3.0,8.0,34,0.00,,,0.00,WUHU216DAVISVP2,2013-02-03 18:05:00,
2013-02-03 12:10:00,68.3,35.5,30.27,NNW,346,4.0,8.0,30,0.00,,,0.00,WUHU216DAVISVP2,2013-02-03 18:10:00,
2013-02-03 12:16:00,68.6,34.9,30.26,NNW,347,2.0,7.0,29,0.00,,,0.00,WUHU216DAVISVP2,2013-02-03 18:16:00,
2013-02-03 12:21:00,68.5,35.6,30.26,North,355,5.0,7.0,30,0.00,,,0.00,WUHU216DAVISVP2,2013-02-03 18:21:00,
2013-02-03 12:26:00,68.5,36.5,30.26,North,349,4.0,7.0,31,0.00,,,0.00,WUHU216DAVISVP2,2013-02-03 18:26:00,
2013-02-03 12:31:00,68.7,34.1,30.26,NNW,341,2.0,7.0,28,0.00,,,0.00,WUHU216DAVISVP2,2013-02-03 18:31:00,
2013-02-03 12:36:00,69.0,36.1,30.25,North,351,2.0,7.0,30,0.00,,,0.00,WUHU216DAVISVP2,2013-02-03 18:36:00,
2013-02-03 12:41:00,69.4,35.6,30.25,NW,309,1.0,7.0,29,0.00,,,0.00,WUHU216DAVISVP2,2013-02-03 18:41:00,
2013-02-03 12:46:00,69.6,34.9,30.25,NNW,346,4.0,8.0,28,0.00,,,0.00,WUHU216DAVISVP2,2013-02-03 18:46:00,
2013-02-03 12:51:00,69.3,34.6,30.24,North,355,2.0,8.0,28,0.00,,,0.00,WUHU216DAVISVP2,2013-02-03 18:51:00,
2013-02-03 12:56:00,69.3,34.8,30.24,NNW,347,3.0,8.0,28,0.00,,,0.00,WUHU216DAVISVP2,2013-02-03 18:56:00,
2013-02-03 13:01:00,69.6,36.8,30.23,North,351,1.0,8.0,30,0.00,,,0.00,WUHU216DAVISVP2,2013-02-03 19:01:00,
2013-02-03 13:06:00,69.4,36.4,30.23,NNW,344,4.0,8.0,30,0.00,,,0.00,WUHU216DAVISVP2,2013-02-03 19:06:00,
2013-02-03 13:11:00,69.3,37.2,30.23,NNW,344,1.0,6.0,31,0.00,,,0.00,WUHU216DAVISVP2,2013-02-03 19:11:00,
2013-02-03 13:16:00,69.5,35.7,30.23,NNW,348,1.0,6.0,29,0.00,,,0.00,WUHU216DAVISVP2,2013-02-03 19:16:00,
2013-02-03 13:21:00,69.4,38.9,30.22,NNW,348,0.0,6.0,33,0.00,,,0.00,WUHU216DAVISVP2,2013-02-03 19:21:00,
2013-02-03 13:26:00,69.6,36.6,30.22,North,355,1.0,6.0,30,0.00,,,0.00,WUHU216DAVISVP2,2013-02-03 19:26:00,
2013-02-03 13:31:00,69.5,37.5,30.21,North,360,0.0,6.0,31,0.00,,,0.00,WUHU216DAVISVP2,2013-02-03 19:31:00,
2013-02-03 13:36:00,69.9,39.5,30.21,North,360,1.0,6.0,33,0.00,,,0.00,WUHU216DAVISVP2,2013-02-03 19:36:00,
2013-02-03 13:41:00,70.1,39.6,30.20,North,355,1.0,6.0,33,0.00,,,0.00,WUHU216DAVISVP2,2013-02-03 19:41:00,
2013-02-03 13:46:00,70.1,40.2,30.20,North,355,1.0,5.0,34,0.00,,,0.00,WUHU216DAVISVP2,2013-02-03 19:46:00,
2013-02-03 13:51:00,70.6,42.2,30.20,WSW,249,1.0,5.0,36,0.00,,,0.00,WUHU216DAVISVP2,2013-02-03 19:51:00,
2013-02-03 13:56:00,71.0,38.7,30.19,NNW,339,0.0,5.0,31,0.00,,,0.00,WUHU216DAVISVP2,2013-02-03 19:56:00,
2013-02-03 14:01:00,71.3,42.1,30.19,NW,312,2.0,3.0,35,0.00,,,0.00,WUHU216DAVISVP2,2013-02-03 20:01:00,
2013-02-03 14:06:00,71.1,41.3,30.18,SSW,203,0.0,3.0,34,0.00,,,0.00,WUHU216DAVISVP2,2013-02-03 20:06:00,
2013-02-03 14:11:00,71.3,43.0,30.18,SSW,196,0.0,3.0,36,0.00,,,0.00,WUHU216DAVISVP2,2013-02-03 20:11:00,
2013-02-03 14:16:00,71.7,41.0,30.18,NNE,23,1.0,3.0,33,0.00,,,0.00,WUHU216DAVISVP2,2013-02-03 20:16:00,
2013-02-03 14:21:00,71.5,39.9,30.18,NNE,23,0.0,3.0,32,0.00,,,0.00,WUHU216DAVISVP2,2013-02-03 20:21:00,
2013-02-03 14:26:00,70.7,39.2,30.17,North,9,1.0,4.0,32,0.00,,,0.00,WUHU216DAVISVP2,2013-02-03 20:26:00,
2013-02-03 14:31:00,70.3,39.6,30.17,North,9,2.0,4.0,33,0.00,,,0.00,WUHU216DAVISVP2,2013-02-03 20:31:00,
2013-02-03 14:36:00,70.2,40.3,30.17,North,9,1.0,4.0,34,0.00,,,0.00,WUHU216DAVISVP2,2013-02-03 20:36:00,
2013-02-03 14:41:00,70.2,41.3,30.17,North,355,0.0,4.0,35,0.00,,,0.00,WUHU216DAVISVP2,2013-02-03 20:41:00,
2013-02-03 14:46:00,70.1,41.2,30.17,North,355,3.0,4.0,35,0.00,,,0.00,WUHU216DAVISVP2,2013-02-03 20:46:00,
2013-02-03 14:51:00,70.2,39.6,30.17,North,355,1.0,4.0,33,0.00,,,0.00,WUHU216DAVISVP2,2013-02-03 20:51:00,
2013-02-03 14:56:00,70.1,40.2,30.16,North,355,0.0,4.0,34,0.00,,,0.00,WUHU216DAVISVP2,2013-02-03 20:56:00,
2013-02-03 15:01:00,70.2,41.8,30.16,North,355,0.0,4.0,36,0.00,,,0.00,WUHU216DAVISVP2,2013-02-03 21:01:00,
2013-02-03 15:06:00,70.7,41.5,30.16,North,355,1.0,4.0,35,0.00,,,0.00,WUHU216DAVISVP2,2013-02-03 21:06:00,
2013-02-03 15:11:00,70.9,41.9,30.16,NW,304,1.0,4.0,35,0.00,,,0.00,WUHU216DAVISVP2,2013-02-03 21:11:00,
2013-02-03 15:16:00,70.8,40.1,30.15,NW,304,1.0,4.0,33,0.00,,,0.00,WUHU216DAVISVP2,2013-02-03 21:16:00,
2013-02-03 15:21:00,70.7,40.8,30.15,NW,304,0.0,4.0,34,0.00,,,0.00,WUHU216DAVISVP2,2013-02-03 21:21:00,
2013-02-03 15:26:00,70.6,39.9,30.15,SSW,194,0.0,3.0,33,0.00,,,0.00,WUHU216DAVISVP2,2013-02-03 21:26:00,
2013-02-03 15:31:00,70.7,40.8,30.14,WSW,244,1.0,3.0,34,0.00,,,0.00,WUHU216DAVISVP2,2013-02-03 21:31:00,
2013-02-03 15:36:00,70.8,40.1,30.14,WSW,244,0.0,3.0,33,0.00,,,0.00,WUHU216DAVISVP2,2013-02-03 21:36:00,
2013-02-03 15:41:00,70.5,39.0,30.14,WSW,244,1.0,3.0,32,0.00,,,0.00,WUHU216DAVISVP2,2013-02-03 21:41:00,
2013-02-03 15:46:00,70.3,40.4,30.14,NNW,348,1.0,3.0,34,0.00,,,0.00,WUHU216DAVISVP2,2013-02-03 21:46:00,
2013-02-03 15:51:00,70.1,38.7,30.13,NNW,348,1.0,3.0,32,0.00,,,0.00,WUHU216DAVISVP2,2013-02-03 21:51:00,
2013-02-03 15:56:00,69.7,39.1,30.13,NNW,348,1.0,4.0,33,0.00,,,0.00,WUHU216DAVISVP2,2013-02-03 21:56:00,
2013-02-03 16:01:00,69.6,39.8,30.13,NNW,348,1.0,4.0,34,0.00,,,0.00,WUHU216DAVISVP2,2013-02-03 22:01:00,
2013-02-03 16:06:00,69.5,39.9,30.13,NNW,327,2.0,4.0,34,0.00,,,0.00,WUHU216DAVISVP2,2013-02-03 22:06:00,
2013-02-03 16:11:00,69.4,39.8,30.13,NNW,327,0.0,4.0,34,0.00,,,0.00,WUHU216DAVISVP2,2013-02-03 22:11:00,
2013-02-03 16:16:00,69.4,39.6,30.12,SSE,164,0.0,4.0,34,0.00,,,0.00,WUHU216DAVISVP2,2013-02-03 22:16:00,
2013-02-03 16:21:00,69.4,39.6,30.12,SSE,164,0.0,4.0,34,0.00,,,0.00,WUHU216DAVISVP2,2013-02-03 22:21:00,
2013-02-03 16:26:00,69.2,39.4,30.12,NNE,23,0.0,3.0,34,0.00,,,0.00,WUHU216DAVISVP2,2013-02-03 22:26:00,
2013-02-03 16:31:00,68.9,39.9,30.12,NNE,23,0.0,2.0,35,0.00,,,0.00,WUHU216DAVISVP2,2013-02-03 22:31:00,
2013-02-03 16:36:00,68.6,40.4,30.12,NE,38,0.0,2.0,36,0.00,,,0.00,WUHU216DAVISVP2,2013-02-03 22:36:00,
2013-02-03 16:41:00,68.4,38.7,30.12,NE,38,0.0,2.0,34,0.00,,,0.00,WUHU216DAVISVP2,2013-02-03 22:41:00,
2013-02-03 16:46:00,68.3,40.1,30.11,NE,39,0.0,2.0,36,0.00,,,0.00,WUHU216DAVISVP2,2013-02-03 22:46:00,
2013-02-03 16:51:00,68.0,40.6,30.11,NE,40,0.0,2.0,37,0.00,,,0.00,WUHU216DAVISVP2,2013-02-03 22:51:00,
2013-02-03 16:56:00,67.6,40.2,30.11,NE,40,0.0,2.0,37,0.00,,,0.00,WUHU216DAVISVP2,2013-02-03 22:56:00,
2013-02-03 17:01:00,67.4,40.7,30.11,NE,47,1.0,2.0,38,0.00,,,0.00,WUHU216DAVISVP2,2013-02-03 23:01:00,
2013-02-03 17:06:00,67.1,40.5,30.11,South,176,0.0,2.0,38,0.00,,,0.00,WUHU216DAVISVP2,2013-02-03 23:06:00,
2013-02-03 17:11:00,66.9,41.0,30.10,South,177,0.0,2.0,39,0.00,,,0.00,WUHU216DAVISVP2,2013-02-03 23:11:00,
2013-02-03 17:16:00,66.7,40.9,30.10,SW,232,1.0,2.0,39,0.00,,,0.00,WUHU216DAVISVP2,2013-02-03 23:16:00,
2013-02-03 17:21:00,66.4,40.7,30.10,SW,232,0.0,2.0,39,0.00,,,0.00,WUHU216DAVISVP2,2013-02-03 23:21:00,
2013-02-03 17:26:00,66.2,40.5,30.10,SW,232,0.0,2.0,39,0.00,,,0.00,WUHU216DAVISVP2,2013-02-03 23:26:00,
2013-02-03 17:31:00,65.9,40.8,30.10,SW,232,0.0,2.0,40,0.00,,,0.00,WUHU216DAVISVP2,2013-02-03 23:31:00,
2013-02-03 17:36:00,65.6,40.5,30.10,SW,232,0.0,2.0,40,0.00,,,0.00,WUHU216DAVISVP2,2013-02-03 23:36:00,
2013-02-03 17:41:00,65.2,40.8,30.10,SW,232,0.0,1.0,41,0.00,,,0.00,WUHU216DAVISVP2,2013-02-03 23:41:00,
2013-02-03 17:46:00,64.8,41.1,30.10,SW,232,0.0,1.0,42,0.00,,,0.00,WUHU216DAVISVP2,2013-02-03 23:46:00,
2013-02-03 17:51:00,64.5,40.8,30.10,SW,232,0.0,1.0,42,0.00,,,0.00,WUHU216DAVISVP2,2013-02-03 23:51:00,
2013-02-03 17:56:00,64.0,41.0,30.11,SW,232,0.0,1.0,43,0.00,,,0.00,WUHU216DAVISVP2,2013-02-03 23:56:00,
2013-02-03 18:01:00,63.6,40.6,30.11,SW,232,0.0,1.0,43,0.00,,,0.00,WUHU216DAVISVP2,2013-02-04 00:01:00,
2013-02-03 18:06:00,63.0,40.7,30.11,SSW,200,1.0,2.0,44,0.00,,,0.00,WUHU216DAVISVP2,2013-02-04 00:06:00,
2013-02-03 18:11:00,62.7,40.4,30.11,South,189,1.0,2.0,44,0.00,,,0.00,WUHU216DAVISVP2,2013-02-04 00:11:00,
2013-02-03 18:16:00,62.4,40.7,30.11,South,183,0.0,2.0,45,0.00,,,0.00,WUHU216DAVISVP2,2013-02-04 00:16:00,
2013-02-03 18:21:00,62.1,40.4,30.11,SSE,151,0.0,2.0,45,0.00,,,0.00,WUHU216DAVISVP2,2013-02-04 00:21:00,
2013-02-03 18:26:00,61.8,40.2,30.11,South,174,1.0,2.0,45,0.00,,,0.00,WUHU216DAVISVP2,2013-02-04 00:26:00,
2013-02-03 18:31:00,61.7,39.5,30.11,SSW,193,0.0,3.0,44,0.00,,,0.00,WUHU216DAVISVP2,2013-02-04 00:31:00,
2013-02-03 18:36:00,61.5,39.9,30.11,South,189,0.0,3.0,45,0.00,,,0.00,WUHU216DAVISVP2,2013-02-04 00:36:00,
2013-02-03 18:41:00,61.2,40.2,30.11,South,190,0.0,3.0,46,0.00,,,0.00,WUHU216DAVISVP2,2013-02-04 00:41:00,
2013-02-03 18:46:00,60.9,39.9,30.11,South,190,0.0,3.0,46,0.00,,,0.00,WUHU216DAVISVP2,2013-02-04 00:46:00,
2013-02-03 18:51:00,60.6,39.1,30.12,South,183,0.0,3.0,45,0.00,,,0.00,WUHU216DAVISVP2,2013-02-04 00:51:00,
2013-02-03 18:56:00,60.3,38.8,30.12,South,183,0.0,3.0,45,0.00,,,0.00,WUHU216DAVISVP2,2013-02-04 00:56:00,
2013-02-03 19:01:00,59.9,39.0,30.12,South,183,0.0,2.0,46,0.00,,,0.00,WUHU216DAVISVP2,2013-02-04 01:01:00,
2013-02-03 19:06:00,59.6,39.3,30.12,South,179,0.0,2.0,47,0.00,,,0.00,WUHU216DAVISVP2,2013-02-04 01:06:00,
2013-02-03 19:11:00,59.3,39.0,30.12,South,179,0.0,2.0,47,0.00,,,0.00,WUHU216DAVISVP2,2013-02-04 01:11:00,
2013-02-03 19:16:00,59.0,39.3,30.12,South,180,0.0,2.0,48,0.00,,,0.00,WUHU216DAVISVP2,2013-02-04 01:16:00,
2013-02-03 19:21:00,58.8,39.7,30.12,South,180,0.0,2.0,49,0.00,,,0.00,WUHU216DAVISVP2,2013-02-04 01:21:00,
2013-02-03 19:26:00,58.6,40.0,30.12,South,180,0.0,2.0,50,0.00,,,0.00,WUHU216DAVISVP2,2013-02-04 01:26:00,
2013-02-03 19:31:00,58.4,39.8,30.12,South,180,0.0,2.0,50,0.00,,,0.00,WUHU216DAVISVP2,2013-02-04 01:31:00,
2013-02-03 19:36:00,58.2,40.7,30.12,South,180,0.0,2.0,52,0.00,,,0.00,WUHU216DAVISVP2,2013-02-04 01:36:00,
2013-02-03 19:41:00,58.0,40.5,30.11,South,180,0.0,1.0,52,0.00,,,0.00,WUHU216DAVISVP2,2013-02-04 01:41:00,
2013-02-03 19:46:00,57.8,40.8,30.11,South,180,0.0,1.0,53,0.00,,,0.00,WUHU216DAVISVP2,2013-02-04 01:46:00,
2013-02-03 19:51:00,57.6,40.6,30.11,South,180,0.0,1.0,53,0.00,,,0.00,WUHU216DAVISVP2,2013-02-04 01:51:00,
2013-02-03 19:56:00,57.5,41.0,30.11,South,180,0.0,1.0,54,0.00,,,0.00,WUHU216DAVISVP2,2013-02-04 01:56:00,
2013-02-03 20:01:00,57.4,41.4,30.11,South,180,0.0,1.0,55,0.00,,,0.00,WUHU216DAVISVP2,2013-02-04 02:01:00,
2013-02-03 20:06:00,57.2,41.2,30.11,South,180,0.0,1.0,55,0.00,,,0.00,WUHU216DAVISVP2,2013-02-04 02:06:00,
2013-02-03 20:11:00,56.9,41.0,30.11,South,180,0.0,1.0,55,0.00,,,0.00,WUHU216DAVISVP2,2013-02-04 02:11:00,
2013-02-03 20:16:00,56.8,40.9,30.11,South,180,0.0,1.0,55,0.00,,,0.00,WUHU216DAVISVP2,2013-02-04 02:16:00,
2013-02-03 20:21:00,56.7,41.3,30.11,South,180,0.0,1.0,56,0.00,,,0.00,WUHU216DAVISVP2,2013-02-04 02:21:00,
2013-02-03 20:26:00,56.6,41.6,30.11,South,180,0.0,1.0,57,0.00,,,0.00,WUHU216DAVISVP2,2013-02-04 02:26:00,
2013-02-03 20:31:00,56.5,42.0,30.11,South,180,0.0,2.0,58,0.00,,,0.00,WUHU216DAVISVP2,2013-02-04 02:31:00,
2013-02-03 20:36:00,56.4,42.4,30.10,North,9,0.0,3.0,59,0.00,,,0.00,WUHU216DAVISVP2,2013-02-04 02:36:00,
2013-02-03 20:41:00,56.4,42.4,30.10,North,9,0.0,3.0,59,0.00,,,0.00,WUHU216DAVISVP2,2013-02-04 02:41:00,
2013-02-03 20:46:00,56.4,42.8,30.10,North,5,0.0,3.0,60,0.00,,,0.00,WUHU216DAVISVP2,2013-02-04 02:46:00,
2013-02-03 20:51:00,56.3,43.1,30.10,North,5,0.0,1.0,61,0.00,,,0.00,WUHU216DAVISVP2,2013-02-04 02:51:00,
2013-02-03 20:56:00,56.3,43.6,30.10,North,5,0.0,1.0,62,0.00,,,0.00,WUHU216DAVISVP2,2013-02-04 02:56:00,
2013-02-03 21:01:00,56.3,43.6,30.10,North,5,1.0,1.0,62,0.00,,,0.00,WUHU216DAVISVP2,2013-02-04 03:01:00,
2013-02-03 21:06:00,56.2,43.9,30.10,North,5,0.0,1.0,63,0.00,,,0.00,WUHU216DAVISVP2,2013-02-04 03:06:00,
2013-02-03 21:11:00,56.2,44.3,30.10,North,5,0.0,1.0,64,0.00,,,0.00,WUHU216DAVISVP2,2013-02-04 03:11:00,
2013-02-03 21:16:00,56.1,44.6,30.10,North,9,1.0,2.0,65,0.00,,,0.00,WUHU216DAVISVP2,2013-02-04 03:16:00,
2013-02-03 21:21:00,56.1,44.6,30.10,North,9,0.0,2.0,65,0.00,,,0.00,WUHU216DAVISVP2,2013-02-04 03:21:00,
2013-02-03 21:26:00,56.2,45.1,30.10,North,9,0.0,2.0,66,0.00,,,0.00,WUHU216DAVISVP2,2013-02-04 03:26:00,
2013-02-03 21:31:00,56.2,45.1,30.10,North,5,0.0,2.0,66,0.00,,,0.00,WUHU216DAVISVP2,2013-02-04 03:31:00,
2013-02-03 21:36:00,56.2,45.1,30.09,North,5,0.0,2.0,66,0.00,,,0.00,WUHU216DAVISVP2,2013-02-04 03:36:00,
2013-02-03 21:42:00,56.2,45.5,30.09,North,5,1.0,2.0,67,0.00,,,0.00,WUHU216DAVISVP2,2013-02-04 03:42:00,
2013-02-03 21:47:00,56.2,45.5,30.09,North,5,0.0,2.0,67,0.00,,,0.00,WUHU216DAVISVP2,2013-02-04 03:47:00,
2013-02-03 21:52:00,56.2,45.5,30.09,North,5,0.0,2.0,67,0.00,,,0.00,WUHU216DAVISVP2,2013-02-04 03:52:00,
2013-02-03 21:57:00,56.0,45.3,30.09,North,5,0.0,2.0,67,0.00,,,0.00,WUHU216DAVISVP2,2013-02-04 03:57:00,
2013-02-03 22:02:00,55.9,45.1,30.09,North,5,0.0,2.0,67,0.00,,,0.00,WUHU216DAVISVP2,2013-02-04 04:02:00,
2013-02-03 22:07:00,55.9,45.5,30.09,North,5,0.0,1.0,68,0.00,,,0.00,WUHU216DAVISVP2,2013-02-04 04:07:00,
2013-02-03 22:12:00,55.8,45.4,30.09,North,5,0.0,1.0,68,0.00,,,0.00,WUHU216DAVISVP2,2013-02-04 04:12:00,
2013-02-03 22:17:00,55.8,45.8,30.09,North,5,1.0,1.0,69,0.00,,,0.00,WUHU216DAVISVP2,2013-02-04 04:17:00,
2013-02-03 22:22:00,55.8,46.2,30.09,North,5,0.0,1.0,70,0.00,,,0.00,WUHU216DAVISVP2,2013-02-04 04:22:00,
2013-02-03 22:27:00,55.8,46.2,30.08,North,5,0.0,1.0,70,0.00,,,0.00,WUHU216DAVISVP2,2013-02-04 04:27:00,
2013-02-03 22:32:00,55.9,46.6,30.08,North,5,0.0,1.0,71,0.00,,,0.00,WUHU216DAVISVP2,2013-02-04 04:32:00,
2013-02-03 22:37:00,56.0,46.8,30.08,North,9,0.0,2.0,71,0.00,,,0.00,WUHU216DAVISVP2,2013-02-04 04:37:00,
2013-02-03 22:42:00,56.2,47.4,30.07,North,11,0.0,2.0,72,0.00,,,0.00,WUHU216DAVISVP2,2013-02-04 04:42:00,
2013-02-03 22:47:00,56.3,47.5,30.07,North,11,1.0,2.0,72,0.00,,,0.00,WUHU216DAVISVP2,2013-02-04 04:47:00,
2013-02-03 22:52:00,56.4,47.6,30.07,NNE,15,1.0,2.0,72,0.00,,,0.00,WUHU216DAVISVP2,2013-02-04 04:52:00,
2013-02-03 22:57:00,56.5,47.7,30.07,SSW,203,1.0,2.0,72,0.00,,,0.00,WUHU216DAVISVP2,2013-02-04 04:57:00,
2013-02-03 23:00:00,56.5,47.7,30.07,SSW,199,1.0,2.0,72,0.00,,,0.00,WUHU216DAVISVP2,2013-02-04 05:00:00,
2013-02-03 23:01:00,56.5,47.7,30.07,SSW,199,1.0,2.0,72,0.00,,,0.00,WUHU216DAVISVP2,2013-02-04 05:01:00,
2013-02-03 23:02:00,56.5,47.7,30.07,SSW,199,0.0,2.0,72,0.00,,,0.00,WUHU216DAVISVP2,2013-02-04 05:02:00,
2013-02-03 23:03:00,56.5,47.7,30.07,SSW,200,0.0,2.0,72,0.00,,,0.00,WUHU216DAVISVP2,2013-02-04 05:03:00,
2013-02-03 23:08:00,56.5,47.7,30.07,NNW,348,0.0,2.0,72,0.00,,,0.00,WUHU216DAVISVP2,2013-02-04 05:08:00,
2013-02-03 23:13:00,56.5,47.7,30.06,SW,230,1.0,2.0,72,0.00,,,0.00,WUHU216DAVISVP2,2013-02-04 05:13:00,
2013-02-03 23:18:00,56.6,48.2,30.06,South,183,0.0,2.0,73,0.00,,,0.00,WUHU216DAVISVP2,2013-02-04 05:18:00,
2013-02-03 23:23:00,56.6,48.2,30.05,NNE,15,0.0,2.0,73,0.00,,,0.00,WUHU216DAVISVP2,2013-02-04 05:23:00,
2013-02-03 23:28:00,56.6,47.8,30.05,NNE,15,0.0,2.0,72,0.00,,,0.00,WUHU216DAVISVP2,2013-02-04 05:28:00,
2013-02-03 23:33:00,56.6,47.8,30.05,NNE,15,0.0,2.0,72,0.00,,,0.00,WUHU216DAVISVP2,2013-02-04 05:33:00,
2013-02-03 23:38:00,56.7,47.8,30.05,NNE,15,0.0,2.0,72,0.00,,,0.00,WUHU216DAVISVP2,2013-02-04 05:38:00,
2013-02-03 23:43:00,56.7,47.8,30.05,NNE,15,1.0,2.0,72,0.00,,,0.00,WUHU216DAVISVP2,2013-02-04 05:43:00,
2013-02-03 23:48:00,56.7,48.1,30.04,NNE,15,1.0,2.0,73,0.00,,,0.00,WUHU216DAVISVP2,2013-02-04 05:48:00,
2013-02-03 23:53:00,56.8,48.2,30.03,NNE,15,1.0,2.0,73,0.00,,,0.00,WUHU216DAVISVP2,2013-02-04 05:53:00,
2013-02-03 23:58:00,56.9,48.3,30.03,NNE,15,0.0,2.0,73,0.00,,,0.00,WUHU216DAVISVP2,2013-02-04 05:58:00,